{"data":{"norad_id":62131,"intl_designator":"2024-222T","name":"STARLINK-32550","alt_names":[],"object_type":"PAYLOAD","status":"ACTIVE","operator":null,"country":"US","launch_date":"2024-11-27","launch_site_code":"AFETR","launch_vehicle":null,"mission":null,"orbit_class":"UNKNOWN","rcs_meters":null,"size_class":null,"mass_kg":null,"dimensions":null,"purposes":["comms"],"wikipedia_slug":null,"has_3d_model":false,"image_url":null,"decayed_at":null,"tle_current":{"epoch":"2026-05-25T04:12:48.816000Z","epoch_age_seconds":59653,"freshness":"FRESH","line1":"1 62131U 24222T   26145.17556500  .00019969  00000+0  73274-3 0  9991","line2":"2 62131  43.0032  64.4738 0001556 267.0931  92.9743 15.27601153 84494","mean_motion":15.27601153,"eccentricity":0.0001556,"inclination_deg":43.0032,"raan_deg":64.4738,"arg_perigee_deg":267.0931,"mean_anomaly_deg":92.9743,"bstar":0.00073274,"rev_number":8449,"period_min":94.265443383048,"perigee_km":481.9181663778,"apogee_km":484.0533477798,"semimajor_km":6861.1227570788,"source":"CELESTRAK","updated_at":"2026-05-25T13:38:19.566355Z"}}}